Weather History for Soldotna, AK

Change the Weather History Date:

Tuesday, June 11, 2013

  Actual Average Record
Temperature  
Mean Temperature 56 °F -  
Max Temperature 71 °F 57 °F 71 °F (2013)
Min Temperature 41 °F 42 °F 28 °F (1975)
Degree Days  
Heating Degree Days 9    
Growing Degree Days 6 (Base 50)    
Moisture  
Dew Point 41 °F    
Average Humidity 53    
Maximum Humidity 81    
Minimum Humidity 31    
Precipitation  
Precipitation 0.00 in - - ()
Sea Level Pressure  
Sea Level Pressure 30.06 in    
Wind  
Wind Speed 4 mph (WNW)    
Max Wind Speed 16 mph    
Max Gust Speed 21 mph    
Visibility 10 miles    
Events      
Averages and records for this station are not official NWS values.
T = Trace of Precipitation, MM = Missing Value Source: NWS Daily Summary

Daily Weather History Graph

Daily Weather History Graph

Search for Another Location

Airport:

Trip Planner

Search our weather history database for the weather conditions in past years. The results will help you decide how hot, cold, wet, or windy it might be!

Date:

Astronomy

Jun. 11, 2013 Rise Set
Actual Time 4:36 AM AKDT 11:31 PM AKDT
Civil Twilight 2:44 AM AKDT 1:26 AM AKDT
Nautical Twilight Sun does not rise Sun does not rise
Astronomical Twilight Sun does not rise Sun does not rise
Moon 8:15 AM AKDT (6/11) 12:20 AM AKDT (6/11)
Length of Visible Light 22h 41m
Length of Day
18h 55m
Waxing Crescent, 9% of the Moon is Illuminated
Jun 11
Waxing Crescent
Jun 16
First Quarter
Jun 23
Full
Jun 29
Last Quarter
Jul 7
New

Hourly Weather History & Observations

Time (AKDT) Temp. Windchill Dew Point Humidity Pressure Visibility Wind Dir Wind Speed Gust Speed Precip Events Conditions
12:16 AM 57.2 °F - 42.8 °F 59% 30.13 in 10.0 mi South 4.6 mph - N/A   Clear
12:36 AM 55.4 °F - 42.8 °F 63% 30.14 in 10.0 mi East 3.5 mph - N/A   Clear
12:56 AM 55.4 °F - 42.8 °F 63% 30.14 in 10.0 mi Calm Calm - N/A   Clear
1:16 AM 55.4 °F - 42.8 °F 63% 30.14 in 10.0 mi Calm Calm - N/A   Clear
1:36 AM 51.8 °F - 41.0 °F 67% 30.13 in 10.0 mi Calm Calm - N/A   Clear
1:56 AM 50.0 °F - 41.0 °F 71% 30.13 in 10.0 mi Calm Calm - N/A   Clear
2:16 AM 48.2 °F - 39.2 °F 71% 30.13 in 10.0 mi Calm Calm - N/A   Clear
2:36 AM 48.2 °F - 39.2 °F 71% 30.14 in 10.0 mi Calm Calm - N/A   Clear
2:56 AM 46.4 °F - 37.4 °F 71% 30.13 in 10.0 mi Calm Calm - N/A   Clear
3:16 AM 46.4 °F - 39.2 °F 76% 30.13 in 10.0 mi Calm Calm - N/A   Clear
3:36 AM 44.6 °F - 37.4 °F 76% 30.14 in 10.0 mi Calm Calm - N/A   Clear
3:56 AM 44.6 °F - 37.4 °F 76% 30.13 in 10.0 mi Calm Calm - N/A   Clear
4:16 AM 42.8 °F - 37.4 °F 81% 30.13 in 10.0 mi Calm Calm - N/A   Clear
4:36 AM 42.8 °F 41.1 °F 35.6 °F 76% 30.13 in 10.0 mi East 3.5 mph - N/A   Clear
4:56 AM 42.8 °F - 35.6 °F 76% 30.13 in 10.0 mi Calm Calm - N/A   Clear
5:16 AM 42.8 °F - 35.6 °F 76% 30.12 in 10.0 mi Calm Calm - N/A   Clear
5:36 AM 41.0 °F - 33.8 °F 76% 30.12 in 10.0 mi Calm Calm - N/A   Clear
5:56 AM 41.0 °F - 35.6 °F 81% 30.12 in 10.0 mi Calm Calm - N/A   Clear
6:16 AM 42.8 °F 41.1 °F 37.4 °F 81% 30.12 in 10.0 mi East 3.5 mph - N/A   Clear
6:36 AM 44.6 °F - 37.4 °F 76% 30.12 in 10.0 mi Calm Calm - N/A   Clear
6:56 AM 46.4 °F - 37.4 °F 71% 30.12 in 10.0 mi Calm Calm - N/A   Clear
7:16 AM 48.2 °F - 39.2 °F 71% 30.12 in 10.0 mi Calm Calm - N/A   Clear
7:36 AM 50.0 °F - 39.2 °F 66% 30.12 in 10.0 mi Calm Calm - N/A   Clear
7:56 AM 53.6 °F - 41.0 °F 62% 30.12 in 10.0 mi Calm Calm - N/A   Clear
8:16 AM 53.6 °F - 41.0 °F 62% 30.12 in 10.0 mi Calm Calm - N/A   Clear
8:36 AM 53.6 °F - 41.0 °F 62% 30.11 in 10.0 mi Calm Calm - N/A   Clear
8:56 AM 55.4 °F - 42.8 °F 63% 30.11 in 10.0 mi Calm Calm - N/A   Clear
9:16 AM 57.2 °F - 44.6 °F 63% 30.11 in 10.0 mi Calm Calm - N/A   Clear
9:36 AM 57.2 °F - 42.8 °F 59% 30.10 in 10.0 mi WNW 3.5 mph - N/A   Clear
9:56 AM 57.2 °F - 42.8 °F 59% 30.10 in 10.0 mi Calm Calm - N/A   Clear
10:16 AM 60.8 °F - 44.6 °F 55% 30.10 in 10.0 mi Calm Calm - N/A   Clear
10:36 AM 62.6 °F - 44.6 °F 52% 30.09 in 10.0 mi Calm Calm - N/A   Clear
10:56 AM 62.6 °F - 42.8 °F 48% 30.09 in 10.0 mi NE 6.9 mph - N/A   Clear
11:16 AM 64.4 °F - 42.8 °F 45% 30.09 in 10.0 mi NNE 6.9 mph - N/A   Clear
11:36 AM 64.4 °F - 42.8 °F 45% 30.08 in 10.0 mi NNE 3.5 mph - N/A   Clear
11:56 AM 66.2 °F - 42.8 °F 43% 30.07 in 10.0 mi NE 9.2 mph - N/A   Clear
12:16 PM 66.2 °F - 42.8 °F 43% 30.07 in 10.0 mi North 4.6 mph - N/A   Clear
12:36 PM 66.2 °F - 42.8 °F 43% 30.07 in 10.0 mi NE 5.8 mph - N/A   Clear
12:56 PM 68.0 °F - 42.8 °F 40% 30.06 in 10.0 mi NNE 6.9 mph - N/A   Clear
1:16 PM 69.8 °F - 42.8 °F 38% 30.05 in 10.0 mi NNW 5.8 mph - N/A   Clear
1:36 PM 69.8 °F - 42.8 °F 38% 30.05 in 10.0 mi NNW 6.9 mph - N/A   Clear
1:56 PM 69.8 °F - 42.8 °F 38% 30.05 in 10.0 mi NW 6.9 mph - N/A   Clear
2:16 PM 69.8 °F - 41.0 °F 35% 30.04 in 10.0 mi NNE 8.1 mph - N/A   Clear
2:36 PM 69.8 °F - 42.8 °F 38% 30.03 in 10.0 mi WNW 10.4 mph 16.1 mph N/A   Clear
2:56 PM 69.8 °F - 42.8 °F 38% 30.03 in 10.0 mi WNW 11.5 mph 16.1 mph N/A   Clear
3:16 PM 69.8 °F - 42.8 °F 38% 30.03 in 10.0 mi West 16.1 mph 20.7 mph N/A   Clear
3:36 PM 69.8 °F - 42.8 °F 38% 30.02 in 10.0 mi West 13.8 mph - N/A   Clear
3:56 PM 69.8 °F - 42.8 °F 38% 30.02 in 10.0 mi West 13.8 mph - N/A   Clear
4:16 PM 69.8 °F - 42.8 °F 38% 30.02 in 10.0 mi West 12.7 mph - N/A   Clear
4:36 PM 69.8 °F - 44.6 °F 40% 30.01 in 10.0 mi West 15.0 mph 20.7 mph N/A   Clear
4:56 PM 69.8 °F - 42.8 °F 38% 30.01 in 10.0 mi West 13.8 mph - N/A   Clear
5:16 PM 69.8 °F - 42.8 °F 38% 30.01 in 10.0 mi West 15.0 mph 19.6 mph N/A   Clear
5:36 PM 69.8 °F - 42.8 °F 38% 30.01 in 10.0 mi West 13.8 mph - N/A   Clear
5:56 PM 69.8 °F - 42.8 °F 38% 30.01 in 10.0 mi West 13.8 mph - N/A   Clear
6:16 PM 69.8 °F - 42.8 °F 38% 30.00 in 10.0 mi West 13.8 mph - N/A   Clear
6:36 PM 69.8 °F - 42.8 °F 38% 30.00 in 10.0 mi West 13.8 mph - N/A   Clear
6:56 PM 69.8 °F - 42.8 °F 38% 30.00 in 10.0 mi West 12.7 mph - N/A   Clear
7:16 PM 69.8 °F - 42.8 °F 38% 29.99 in 10.0 mi West 13.8 mph - N/A   Clear
7:36 PM 69.8 °F - 42.8 °F 38% 29.99 in 10.0 mi West 11.5 mph - N/A   Clear
7:56 PM 71.6 °F - 39.2 °F 31% 29.99 in 10.0 mi WNW 11.5 mph - N/A   Clear
8:16 PM 69.8 °F - 42.8 °F 38% 29.98 in 10.0 mi West 11.5 mph - N/A   Clear
8:36 PM 69.8 °F - 42.8 °F 38% 29.98 in 10.0 mi West 10.4 mph - N/A   Clear
8:56 PM 66.2 °F - 42.8 °F 43% 29.98 in 10.0 mi West 10.4 mph - N/A   Clear
9:16 PM 66.2 °F - 42.8 °F 43% 29.98 in 10.0 mi West 9.2 mph - N/A   Clear
9:36 PM 66.2 °F - 42.8 °F 43% 29.98 in 10.0 mi West 8.1 mph - N/A   Clear
9:56 PM 64.4 °F - 42.8 °F 45% 29.99 in 10.0 mi WSW 6.9 mph - N/A   Clear
10:16 PM 64.4 °F - 42.8 °F 45% 29.99 in 10.0 mi WSW 5.8 mph - N/A   Clear
10:36 PM 62.6 °F - 42.8 °F 48% 29.99 in 9.0 mi West 5.8 mph - N/A   Clear
10:56 PM 60.8 °F - 41.0 °F 48% 29.99 in 10.0 mi West 4.6 mph - N/A   Clear
11:16 PM 59.0 °F - 41.0 °F 51% 29.99 in 10.0 mi Calm Calm - N/A   Clear
11:36 PM 55.4 °F - 41.0 °F 58% 30.00 in 10.0 mi South 3.5 mph - N/A   Clear
11:56 PM 57.2 °F - 41.0 °F 55% 30.00 in 10.0 mi Calm Calm - N/A   Clear